This is the latest recevied weather packets stored in our database for station/object W0RMT-13. If no packets are shown the sender has not sent any weather packets the latest 10 day(s).
| Time | Temp. | Humidity | Pressure | Rain* | Wind** | Luminosity | Snow |
|---|---|---|---|---|---|---|---|
| 1777978373 | 3.33° C | 99% | 1013 hPa | 1.52 mm | - | 0 W/m² | - |
| 1777977725 | 3.89° C | 99% | 1013 hPa | 1.78 mm | - | 0 W/m² | - |
| 1777977070 | 3.89° C | 99% | 1012.2 hPa | 2.79 mm | - | 0 W/m² | - |
| 1777976391 | 3.89° C | 99% | 1012.7 hPa | 2.79 mm | - | 0 W/m² | - |
| 1777975712 | 4.44° C | 99% | 1012.2 hPa | 2.54 mm | - | 0 W/m² | - |
| 1777975106 | 4.44° C | 99% | 1011.8 hPa | 2.29 mm | - | 0 W/m² | - |
| 1777974420 | 4.44° C | 99% | 1012.2 hPa | 1.52 mm | - | 0 W/m² | - |
| 1777973702 | 4.44° C | 99% | 1011.8 hPa | 0.25 mm | - | 0 W/m² | - |
| 1777973052 | 5° C | 99% | 1011.8 hPa | 0 mm | - | 0 W/m² | - |
| 1777972410 | 5° C | 99% | 1011.5 hPa | 0 mm | - | 0 W/m² | - |
| 1777971735 | 5° C | 99% | 1011.5 hPa | 0.51 mm | - | 0 W/m² | - |
| 1777971092 | 5° C | 99% | 1011.5 hPa | 0.51 mm | - | 0 W/m² | - |
| 1777970461 | 5° C | 99% | 1011.5 hPa | 0.51 mm | - | 0 W/m² | - |
| 1777969840 | 5° C | 99% | 1011.5 hPa | 0.51 mm | - | 0 W/m² | - |
| 1777969085 | 5° C | 99% | 1011.5 hPa | 0.51 mm | - | 0 W/m² | - |
| 1777968437 | 5.56° C | 99% | 1011.8 hPa | 0.51 mm | - | 0 W/m² | - |
| 1777967762 | 6.11° C | 99% | 1011.5 hPa | 0 mm | - | 0 W/m² | - |
| 1777967101 | 7.22° C | 99% | 1011.5 hPa | 0 mm | - | 0 W/m² | - |
| 1777966493 | 7.22° C | 99% | 1011.5 hPa | 0 mm | - | 0 W/m² | - |
| 1777965818 | 7.78° C | 99% | 1011.5 hPa | 0 mm | - | 0 W/m² | - |
| 1777965179 | 7.22° C | 99% | 1011.5 hPa | 0 mm | - | 0 W/m² | - |
| 1777964565 | 7.22° C | 99% | 1011.5 hPa | 0 mm | - | 0 W/m² | - |
| 1777963878 | 7.22° C | 99% | 1010.7 hPa | 0 mm | - | 0 W/m² | - |
| 1777963192 | 7.22° C | 99% | 1011 hPa | 0 mm | - | 0 W/m² | - |
| 1777962551 | 7.22° C | 99% | 1011 hPa | 0 mm | - | 0 W/m² | - |
* Rain latest hour (hover to see other rain measurements)
** Current wind speed in m/s (hover to see current wind gust speed)